Location: Wien
(48.2082°N, 16.3738°E)
Time: 15:41:11
(UTC+01:00)

Amateur Radio Satellites - All Passes

Search period start: 18 December 2017 15:11
Search period end: 19 December 2017 15:11
Location: Wien, 48.2082°N, 16.3738°E

Satellite Date Start Highest point End Downlink Frequencies (MHz)
Time Altitude Azimuth
DX 1 18 Dec 15:12:22 15:15:39 21° 298° (WNW) 15:18:54 434.975-435.025
ITUPSAT 1 18 Dec 15:14:38 15:19:17 49° 100° (E) 15:23:55 437.325
ISS 18 Dec 15:19:59 15:23:18 80° 205° (SSW) 15:26:35 437.550
CUBESAT XI-V 18 Dec 15:21:47 15:25:41 25° 93° (E) 15:29:34 437.345
MOZHAYETS 4 18 Dec 15:24:17 15:28:56 88° 286° (WNW) 15:33:35
DOVE 4 18 Dec 15:28:17 15:33:20 53° 71° (ENE) 15:38:11 437.250
O/OREOS (USA 219) 18 Dec 15:41:19 15:44:44 21° 48° (NE) 15:48:06 437.305
XW-2F 18 Dec 15:42:17 15:43:28 11° 59° (ENE) 15:44:38 145.980 - 146.000
M-CUBED/EXP-1 PRIME 18 Dec 15:48:48 15:51:12 14° 267° (W) 15:53:37 437.505
YUBILEINY 18 Dec 15:50:16 15:56:00 20° 286° (WNW) 16:01:43 435.215
nSIGHT-1 18 Dec 15:59:40 16:02:37 33° 215° (SW) 16:05:33 .
XW-2C 18 Dec 15:59:55 16:02:33 18° 63° (ENE) 16:05:12 145.795 - 145.815
ITAMSAT 1 18 Dec 16:02:55 16:06:47 21° 269° (W) 16:10:39 435.822/435.867
CUTE-I 18 Dec 16:17:22 16:22:03 32° 63° (ENE) 16:26:45 437.470
BEESAT 18 Dec 16:21:21 16:25:51 42° 292° (WNW) 16:30:19 436.000
CUTE 1.7 + AOD 2 18 Dec 16:29:32 16:31:25 13° 58° (ENE) 16:33:18 437.475
NUDT-PHONESAT 18 Dec 16:35:30 16:38:41 28° 68° (ENE) 16:41:55 437.300
LilacSat-2 18 Dec 16:40:20 16:44:03 50° 72° (ENE) 16:47:49 437.200
AO-7 18 Dec 16:43:10 16:47:10 14° 276° (W) 16:51:12 .
KKS-1 18 Dec 16:44:18 16:48:15 30° 96° (E) 16:52:10 437.445
SO-50 18 Dec 16:44:21 16:47:40 20° 331° (NNW) 16:51:03 436.795
KAITUO 1B 18 Dec 16:46:23 16:49:54 39° 70° (ENE) 16:53:28 145.475/437.950
XW-2D 18 Dec 16:48:52 16:52:36 60° 74° (ENE) 16:56:24 145.860 - 145.880
HO-68 18 Dec 16:49:28 16:56:00 39° 60° (ENE) 17:02:31 435.675
RS-15 18 Dec 16:50:44 17:02:24 45° 334° (NNW) 17:13:47 29.354- 29.394
ITUPSAT 1 18 Dec 16:53:01 16:56:50 24° 298° (WNW) 17:00:39 437.325
ISS 18 Dec 16:57:12 16:59:22 16° 222° (SW) 17:01:31 437.550
CUBESAT XI-V 18 Dec 16:58:45 17:03:13 43° 291° (WNW) 17:07:39 437.345
MOZHAYETS 4 18 Dec 17:03:11 17:05:23 13° 304° (WNW) 17:07:36
XW-2B 18 Dec 17:04:51 17:08:39 87° 82° (E) 17:12:31 145.730 - 145.750
DOVE 4 18 Dec 17:07:06 17:11:14 24° 268° (W) 17:15:15 437.250
XW-2F 18 Dec 17:13:11 17:16:57 80° 257° (WSW) 17:20:48 145.980 - 146.000
STARS 18 Dec 17:15:28 17:19:10 26° 95° (E) 17:22:50 437.465
O/OREOS (USA 219) 18 Dec 17:20:06 17:24:33 61° 249° (WSW) 17:28:56 437.305
SEEDS 18 Dec 17:31:41 17:35:23 30° 67° (ENE) 17:39:07 437.485
XW-2C 18 Dec 17:32:46 17:36:25 43° 262° (W) 17:40:06 145.795 - 145.815
AAUSAT CUBESAT 2 18 Dec 17:38:44 17:41:30 17° 62° (ENE) 17:44:16 437.432
XW-2A 18 Dec 17:39:49 17:41:29 13° 62° (ENE) 17:43:09 145.665 - 145.685
PCSat 18 Dec 17:43:20 17:48:37 57° 118° (ESE) 17:53:56 145.827
UWE-3 18 Dec 17:49:38 17:53:05 26° 65° (ENE) 17:56:32 435.000/436.395/437.385
CUTE-I 18 Dec 17:56:53 18:01:58 43° 262° (W) 18:07:05 437.470
CUBEBUG 2 18 Dec 17:58:12 18:02:15 53° 72° (ENE) 18:06:17 437.445
CUTE 1.7 + AOD 2 18 Dec 18:02:20 18:06:36 86° 256° (WSW) 18:10:56 437.475
ZACube-1 18 Dec 18:05:26 18:08:34 21° 63° (ENE) 18:11:44 437.345
NUDT-PHONESAT 18 Dec 18:09:25 18:12:30 25° 266° (W) 18:15:38 437.300
LilacSat-2 18 Dec 18:16:20 18:18:37 15° 270° (W) 18:20:55 437.200
Oscar 11 18 Dec 18:17:50 18:20:50 19° 62° (ENE) 18:23:50 .
KKS-1 18 Dec 18:20:51 18:24:47 32° 294° (WNW) 18:28:42 437.445
KAITUO 1B 18 Dec 18:21:22 18:24:02 18° 268° (W) 18:26:44 145.475/437.950
XW-2D 18 Dec 18:25:27 18:27:10 13° 271° (W) 18:28:54 145.860 - 145.880
SO-50 18 Dec 18:29:08 18:29:55 10° 355° (N) 18:30:43 436.795
AO-73 18 Dec 18:35:54 18:39:41 36° 68° (ENE) 18:43:32 145.935
HO-68 18 Dec 18:36:35 18:43:33 52° 260° (W) 18:50:34 435.675
BEESAT 3 18 Dec 18:39:41 18:43:14 31° 118° (ESE) 18:46:49 437.485
STARS 18 Dec 18:51:34 18:55:34 36° 293° (WNW) 18:59:33 437.465
STRAND 1 18 Dec 19:02:33 19:07:22 41° 98° (E) 19:12:10 437.568
SEEDS 18 Dec 19:07:17 19:11:01 30° 265° (W) 19:14:49 437.485
FO-29 18 Dec 19:07:22 19:12:14 21° 85° (E) 19:16:42 435.910
RS-15 18 Dec 19:07:41 19:18:41 36° 7° (N) 19:29:13 29.354- 29.394
XW-2A 18 Dec 19:10:31 19:13:47 48° 260° (W) 19:17:06 145.665 - 145.685
AAUSAT CUBESAT 2 18 Dec 19:12:25 19:16:32 56° 260° (W) 19:20:41 437.432
UWE-3 18 Dec 19:25:41 19:29:27 33° 264° (W) 19:33:13 435.000/436.395/437.385
PCSat 18 Dec 19:27:31 19:32:20 32° 319° (NW) 19:37:11 145.827
BEESAT 2 18 Dec 19:30:05 19:33:37 30° 118° (ESE) 19:37:12 435.950
DELFI C3 18 Dec 19:34:48 19:37:54 22° 65° (ENE) 19:41:00 145.870
CUBEBUG 2 18 Dec 19:36:36 19:39:12 16° 270° (W) 19:41:49 437.445
ZACube-1 18 Dec 19:40:39 19:44:36 42° 262° (W) 19:48:36 437.345
Oscar 11 18 Dec 19:52:20 19:56:34 55° 260° (W) 20:00:52 .
SO-50 18 Dec 20:09:52 20:12:23 14° 21° (NNE) 20:14:55 436.795
AO-73 18 Dec 20:12:42 20:16:01 23° 267° (W) 20:19:24 145.935
AO-85 18 Dec 20:15:20 20:18:24 22° 114° (ESE) 20:21:35 145.980
BEESAT 3 18 Dec 20:17:02 20:20:43 35° 317° (NW) 20:24:26 437.485
Max Valier Satellite 18 Dec 20:24:23 20:27:54 46° 72° (ENE) 20:31:28 145.860
STRAND 1 18 Dec 20:42:00 20:46:26 31° 297° (WNW) 20:50:51 437.568
EO-88 18 Dec 20:42:03 20:45:35 52° 72° (ENE) 20:49:10 145.990 - 145.960
FO-29 18 Dec 20:51:19 20:58:14 78° 288° (WNW) 21:04:17 435.910
LO-87 18 Dec 21:00:45 21:02:21 13° 62° (ENE) 21:03:57 145.935 - 145.965
ESTCUBE 1 18 Dec 21:04:21 21:07:07 16° 59° (ENE) 21:09:52 437.505/2401.250
BEESAT 2 18 Dec 21:07:30 21:11:16 37° 317° (NW) 21:15:04 435.950
TIGRISAT 18 Dec 21:08:23 21:12:09 28° 95° (E) 21:15:59 435.000
DELFI C3 18 Dec 21:08:41 21:12:25 38° 263° (W) 21:16:10 145.870
UNISAT 6 18 Dec 21:12:46 21:16:44 33° 96° (E) 21:20:46 437.425
PCSat 18 Dec 21:15:17 21:17:31 12° 343° (NNW) 21:19:46 145.827
RS-15 18 Dec 21:22:13 21:34:07 61° 40° (NE) 21:45:20 29.354- 29.394
SO-50 18 Dec 21:49:35 21:54:01 43° 43° (NE) 21:58:30 436.795
AO-85 18 Dec 21:54:37 21:58:28 47° 315° (NW) 22:02:36 145.980
BEESAT 3 18 Dec 21:58:28 21:59:23 11° 339° (NNW) 22:00:18 437.485
Max Valier Satellite 18 Dec 21:59:52 22:02:00 15° 270° (W) 22:04:08 145.860
PRISM 18 Dec 22:06:43 22:10:26 33° 97° (E) 22:14:07 437.425
EO-88 18 Dec 22:17:42 22:19:32 13° 270° (W) 22:21:22 145.990 - 145.960
VELOX 1 18 Dec 22:18:44 22:21:10 15° 58° (ENE) 22:23:38 145.980
FALCONSAT 3 18 Dec 22:19:04 22:20:21 11° 180° (S) 22:21:37 435.103
SPROUT 18 Dec 22:24:11 22:27:30 23° 64° (ENE) 22:30:49 437.525
LO-87 18 Dec 22:31:50 22:35:19 57° 259° (W) 22:38:49 145.935 - 145.965
FO-29 18 Dec 22:37:39 22:42:05 18° 311° (NW) 22:46:14 435.910
ESTCUBE 1 18 Dec 22:38:50 22:43:21 73° 257° (WSW) 22:47:55 437.505/2401.250
AIST 2D 18 Dec 22:44:53 22:48:10 33° 97° (E) 22:51:24 435.315
TIGRISAT 18 Dec 22:44:56 22:48:53 34° 292° (WNW) 22:52:53 435.000
BEESAT 2 18 Dec 22:48:51 22:50:06 11° 339° (NNW) 22:51:23 435.950
UNISAT 6 18 Dec 22:49:36 22:53:23 29° 294° (WNW) 22:57:12 437.425
POLYITAN 1 18 Dec 22:56:56 22:59:41 17° 91° (E) 23:02:26 437.675
PCSat 18 Dec 23:02:03 23:03:32 11° 11° (N) 23:05:01 145.827
DUCHIFAT 1 18 Dec 23:20:23 23:23:41 22° 93° (E) 23:26:59 145.980
QB50P2 18 Dec 23:22:16 23:26:06 32° 96° (E) 23:29:55 145.880/145.840
SO-50 18 Dec 23:30:13 23:34:25 33° 242° (WSW) 23:38:38 436.795
RS-15 18 Dec 23:35:16 23:46:32 54° 246° (WSW) 23:57:13 29.354- 29.394
AO-85 18 Dec 23:37:48 23:39:58 14° 339° (NNW) 23:42:13 145.980
PRISM 18 Dec 23:42:10 23:45:35 26° 295° (WNW) 23:48:59 437.425
50 SAT 18 Dec 23:48:41 23:50:50 17° 65° (ENE) 23:53:01 437.505
NANOSAT C BR1 18 Dec 23:48:55 23:53:02 49° 100° (E) 23:57:07 145.865
VELOX 1 18 Dec 23:52:35 23:57:02 79° 256° (WSW) 00:01:30 145.980
SPROUT 18 Dec 23:59:08 00:03:09 41° 262° (W) 00:07:12 437.525
EO-79 19 Dec 00:07:16 00:11:31 86° 105° (ESE) 00:15:46 145.935-145.965
UKube-1 19 Dec 00:09:37 00:13:10 25° 64° (ENE) 00:16:44 .
AIST 2D 19 Dec 00:18:30 00:21:07 20° 295° (WNW) 00:23:43 435.315
POLYITAN 1 19 Dec 00:31:39 00:35:48 54° 288° (WNW) 00:39:56 437.675
DX 1 19 Dec 00:34:03 00:38:24 67° 72° (ENE) 00:42:45 434.975-435.025
PCSat 19 Dec 00:44:34 00:48:59 24° 36° (NE) 00:53:23 145.827
Gurwin Techsat 1B 19 Dec 00:47:55 00:52:01 22° 91° (E) 00:56:05 435.225
ITUPSAT 1 19 Dec 00:49:58 00:52:19 14° 55° (NE) 00:54:40 437.325
MOZHAYETS 4 19 Dec 00:54:05 00:57:15 19° 60° (ENE) 01:00:25
DUCHIFAT 1 19 Dec 00:55:34 00:59:29 40° 291° (WNW) 01:03:25 145.980
QB50P2 19 Dec 00:58:11 01:01:47 28° 294° (WNW) 01:05:24 145.880/145.840
YUBILEINY 19 Dec 01:02:43 01:09:27 25° 78° (ENE) 01:16:12 435.215
Oscar 19 19 Dec 01:08:50 01:13:48 43° 98° (E) 01:18:45 437.125/150
AO-91 19 Dec 01:15:00 01:18:16 40° 99° (E) 01:21:27 145.960
BEESAT 3 19 Dec 01:15:53 01:18:06 14° 28° (NNE) 01:20:18 437.485
BUGSAT 1 19 Dec 01:17:51 01:21:55 88° 284° (WNW) 01:26:00 437.445
50 SAT 19 Dec 01:19:45 01:22:34 29° 262° (W) 01:25:24 437.505
NANOSAT C BR1 19 Dec 01:25:22 01:28:24 20° 298° (WNW) 01:31:28 145.865
EO-79 19 Dec 01:44:51 01:46:39 13° 302° (WNW) 01:48:27 145.935-145.965
UKube-1 19 Dec 01:45:00 01:49:01 38° 262° (W) 01:53:05 .
RS-15 19 Dec 01:52:35 01:55:46 11° 270° (W) 01:58:56 29.354- 29.394
BEESAT 19 Dec 01:53:25 01:57:57 46° 68° (ENE) 02:02:29 436.000
BEESAT 2 19 Dec 02:06:55 02:09:14 15° 27° (NNE) 02:11:32 435.950
DX 1 19 Dec 02:12:34 02:15:01 15° 270° (W) 02:17:29 434.975-435.025
ITUPSAT 1 19 Dec 02:24:39 02:29:24 86° 77° (ENE) 02:34:12 437.325
Gurwin Techsat 1B 19 Dec 02:27:07 02:32:21 59° 290° (WNW) 02:37:34 435.225
PCSat 19 Dec 02:27:35 02:33:03 83° 238° (WSW) 02:38:28 145.827
CUBESAT XI-V 19 Dec 02:28:10 02:32:27 37° 67° (ENE) 02:36:46 437.345
MOZHAYETS 4 19 Dec 02:29:27 02:33:57 61° 259° (W) 02:38:31
ITAMSAT 1 19 Dec 02:32:10 02:35:15 16° 89° (E) 02:38:20 435.822/435.867
AO-7 19 Dec 02:42:03 02:49:35 35° 96° (E) 02:57:04 .
Oscar 19 19 Dec 02:48:27 02:52:59 31° 297° (WNW) 02:57:29 437.125/150
BEESAT 3 19 Dec 02:52:28 02:56:24 62° 48° (NE) 03:00:16 437.485
AO-91 19 Dec 02:52:30 02:54:27 15° 298° (WNW) 02:56:23 145.960
BUGSAT 1 19 Dec 02:55:30 02:56:38 11° 303° (WNW) 02:57:45 437.445
YUBILEINY 19 Dec 02:56:23 03:05:15 82° 280° (W) 03:14:10 435.215
AO-85 19 Dec 03:01:30 03:04:39 18° 28° (NNE) 03:07:56 145.980
M-CUBED/EXP-1 PRIME 19 Dec 03:21:20 03:25:22 33° 101° (E) 03:29:10 437.505
BEESAT 19 Dec 03:32:06 03:35:55 24° 267° (W) 03:39:47 436.000
BEESAT 2 19 Dec 03:43:44 03:47:46 61° 48° (NE) 03:51:43 435.950
KKS-1 19 Dec 03:45:24 03:49:39 45° 69° (ENE) 03:53:54 437.445
ITUPSAT 1 19 Dec 04:05:47 04:07:53 13° 272° (W) 04:10:00 437.325
CUBESAT XI-V 19 Dec 04:05:48 04:09:52 29° 266° (W) 04:13:59 437.345
Gurwin Techsat 1B 19 Dec 04:09:41 04:11:15 11° 310° (NW) 04:12:48 435.225
ITAMSAT 1 19 Dec 04:10:08 04:15:21 79° 287° (WNW) 04:20:31 435.822/435.867
PCSat 19 Dec 04:12:51 04:15:35 14° 257° (WSW) 04:18:20 145.827
STARS 19 Dec 04:15:06 04:19:08 37° 67° (ENE) 04:23:10 437.465
BEESAT 3 19 Dec 04:31:03 04:33:29 16° 248° (WSW) 04:35:52 437.485
AO-7 19 Dec 04:34:34 04:42:48 64° 297° (WNW) 04:51:01 .
NO-84 19 Dec 04:38:17 04:40:25 18° 132° (SE) 04:42:38 435.350 FM
AO-85 19 Dec 04:41:12 04:45:53 64° 49° (NE) 04:50:55 145.980
STRAND 1 19 Dec 04:45:46 04:48:32 15° 55° (NE) 04:51:18 437.568
M-CUBED/EXP-1 PRIME 19 Dec 04:55:41 04:59:41 32° 301° (WNW) 05:03:27 437.505
YUBILEINY 19 Dec 04:57:08 05:03:37 22° 304° (NW) 05:10:10 435.215
DOVE 4 19 Dec 05:01:14 05:05:44 82° 105° (ESE) 05:09:57 437.250
XW-2C 19 Dec 05:02:23 05:04:43 15° 90° (E) 05:07:02 145.795 - 145.815
BEESAT 2 19 Dec 05:22:25 05:25:03 17° 248° (WSW) 05:27:40 435.950
KKS-1 19 Dec 05:22:55 05:26:24 22° 267° (W) 05:29:53 437.445
FO-29 19 Dec 05:23:00 05:28:24 21° 51° (NE) 05:33:39 435.910
NUDT-PHONESAT 19 Dec 05:35:16 05:38:20 23° 94° (E) 05:41:22 437.300
LilacSat-2 19 Dec 05:43:51 05:47:37 45° 99° (E) 05:51:21 437.200
CUTE 1.7 + AOD 2 19 Dec 05:44:59 05:47:07 13° 88° (E) 05:49:13 437.475
KAITUO 1B 19 Dec 05:47:24 05:50:52 33° 97° (E) 05:54:19 145.475/437.950
ITAMSAT 1 19 Dec 05:51:19 05:53:59 14° 307° (NW) 05:56:40 435.822/435.867
XW-2D 19 Dec 05:51:33 05:55:20 53° 100° (E) 05:59:06 145.860 - 145.880
STARS 19 Dec 05:51:54 05:55:34 26° 265° (W) 05:59:14 437.465
HO-68 19 Dec 06:00:25 06:06:22 27° 92° (E) 06:12:16 435.675
XW-2B 19 Dec 06:07:35 06:11:28 78° 103° (ESE) 06:15:18 145.730 - 145.750
CUTE-I 19 Dec 06:09:43 06:15:00 58° 101° (E) 06:20:13 437.470
NO-84 19 Dec 06:14:16 06:17:16 63° 332° (NNW) 06:20:32 435.350 FM
XW-2F 19 Dec 06:15:20 06:19:11 90° 4° (N) 06:23:01 145.980 - 146.000
STRAND 1 19 Dec 06:21:50 06:26:57 84° 74° (ENE) 06:32:06 437.568
AO-85 19 Dec 06:22:15 06:26:00 23° 246° (WSW) 06:29:56 145.980
AO-7 19 Dec 06:28:33 06:34:03 20° 319° (NW) 06:39:33 .
XW-2C 19 Dec 06:35:26 06:39:11 49° 288° (WNW) 06:42:54 145.795 - 145.815
DOVE 4 19 Dec 06:40:34 06:42:43 13° 303° (WNW) 06:44:49 437.250
SEEDS 19 Dec 06:46:46 06:50:40 34° 96° (E) 06:54:31 437.485
AAUSAT CUBESAT 2 19 Dec 06:51:29 06:54:20 18° 91° (E) 06:57:09 437.432
FO-29 19 Dec 07:04:27 07:12:16 73° 71° (ENE) 07:19:56 435.910
NUDT-PHONESAT 19 Dec 07:08:52 07:12:11 30° 292° (WNW) 07:15:31 437.300
UWE-3 19 Dec 07:10:36 07:14:38 35° 97° (E) 07:18:44 435.000/436.395/437.385
LilacSat-2 19 Dec 07:18:54 07:21:34 18° 297° (WNW) 07:24:14 437.200
CUTE 1.7 + AOD 2 19 Dec 07:19:08 07:23:26 70° 286° (WNW) 07:27:41 437.475
CUBEBUG 2 19 Dec 07:21:03 07:25:21 76° 103° (ESE) 07:29:47 437.445
KAITUO 1B 19 Dec 07:21:41 07:24:41 22° 294° (WNW) 07:27:39 145.475/437.950
ZACube-1 19 Dec 07:24:48 07:28:35 28° 94° (E) 07:32:25 437.345
XW-2D 19 Dec 07:26:46 07:29:07 16° 298° (WNW) 07:31:27 145.860 - 145.880
O/OREOS (USA 219) 19 Dec 07:35:30 07:40:04 78° 114° (ESE) 07:44:39 437.305
Oscar 11 19 Dec 07:36:16 07:39:38 21° 92° (E) 07:42:58 .
XW-2B 19 Dec 07:43:40 07:45:02 12° 301° (WNW) 07:46:25 145.730 - 145.750
HO-68 19 Dec 07:47:33 07:54:40 69° 292° (WNW) 08:01:45 435.675
CUTE-I 19 Dec 07:50:26 07:54:41 25° 300° (WNW) 07:58:54 437.470
XW-2F 19 Dec 07:52:11 07:52:38 10° 302° (WNW) 07:53:05 145.980 - 146.000
NO-84 19 Dec 07:52:12 07:54:58 26° 354° (N) 07:57:56 435.350 FM
AO-73 19 Dec 07:55:22 07:59:39 49° 99° (E) 08:03:59 145.935
XW-2A 19 Dec 08:00:38 08:04:05 81° 285° (WNW) 08:07:32 145.665 - 145.685
STRAND 1 19 Dec 08:04:03 08:06:48 14° 272° (W) 08:09:34 437.568
TIGRISAT 19 Dec 08:10:27 08:14:20 36° 68° (ENE) 08:18:14 435.000
UNISAT 6 19 Dec 08:14:56 08:18:58 43° 70° (ENE) 08:23:01 437.425
SEEDS 19 Dec 08:22:40 08:26:14 27° 294° (WNW) 08:29:46 437.485
AAUSAT CUBESAT 2 19 Dec 08:26:01 08:30:04 49° 289° (WNW) 08:34:03 437.432
DELFI C3 19 Dec 08:42:01 08:44:58 20° 92° (E) 08:47:54 145.870
UWE-3 19 Dec 08:47:18 08:50:59 27° 294° (WNW) 08:54:44 435.000/436.395/437.385
FO-29 19 Dec 08:51:13 08:57:49 29° 270° (W) 09:04:23 435.910
PRISM 19 Dec 08:58:52 09:02:44 38° 68° (ENE) 09:06:36 437.425
CUBEBUG 2 19 Dec 08:59:11 09:01:27 14° 300° (WNW) 09:03:45 437.445
ZACube-1 19 Dec 09:00:55 09:04:54 35° 292° (WNW) 09:08:57 437.345
Oscar 11 19 Dec 09:11:49 09:15:58 44° 290° (WNW) 09:20:07 .
O/OREOS (USA 219) 19 Dec 09:16:57 09:20:03 18° 314° (NW) 09:23:09 437.305
AIST 2D 19 Dec 09:22:32 09:25:18 22° 66° (ENE) 09:28:06 435.315
Max Valier Satellite 19 Dec 09:24:02 09:27:34 38° 98° (E) 09:31:05 145.860
NO-84 19 Dec 09:29:47 09:32:53 32° 15° (NNE) 09:36:12 435.350 FM
EO-79 19 Dec 09:29:50 09:31:43 13° 58° (ENE) 09:33:36 145.935-145.965
AO-73 19 Dec 09:32:16 09:35:35 21° 297° (WNW) 09:38:56 145.935
HO-68 19 Dec 09:36:42 09:41:12 18° 313° (NW) 09:45:41 435.675
ISS 19 Dec 09:38:41 09:41:19 22° 141° (SE) 09:43:58 437.550
EO-88 19 Dec 09:40:17 09:43:47 40° 98° (E) 09:47:15 145.990 - 145.960
TIGRISAT 19 Dec 09:47:38 09:51:08 25° 266° (W) 09:54:38 435.000
UNISAT 6 19 Dec 09:52:41 09:55:54 21° 268° (W) 09:59:07 437.425
POLYITAN 1 19 Dec 09:52:47 09:55:53 21° 63° (ENE) 09:59:00 437.675
nSIGHT-1 19 Dec 10:14:12 10:17:19 51° 150° (SSE) 10:20:27 .
DUCHIFAT 1 19 Dec 10:15:21 10:18:49 26° 65° (ENE) 10:22:18 145.980
DELFI C3 19 Dec 10:16:11 10:19:52 38° 290° (WNW) 10:23:30 145.870
QB50P2 19 Dec 10:17:57 10:21:51 38° 69° (ENE) 10:25:46 145.880/145.840
ESTCUBE 1 19 Dec 10:28:22 10:31:34 19° 91° (E) 10:34:46 437.505/2401.250
PRISM 19 Dec 10:34:49 10:38:07 22° 266° (W) 10:41:25 437.425
BUGSAT 1 19 Dec 10:38:10 10:39:49 12° 58° (ENE) 10:41:28 437.445
NANOSAT C BR1 19 Dec 10:44:00 10:48:05 57° 72° (ENE) 10:52:11 145.865
Oscar 19 19 Dec 10:52:45 10:55:44 16° 55° (NE) 10:58:44 437.125/150
AIST 2D 19 Dec 10:55:14 10:58:20 28° 264° (W) 11:01:28 435.315
Max Valier Satellite 19 Dec 10:58:26 11:01:08 19° 296° (WNW) 11:03:50 145.860
EO-79 19 Dec 11:02:41 11:06:52 82° 255° (WSW) 11:11:05 145.935-145.965
YUBILEINY 19 Dec 11:06:46 11:11:57 16° 50° (NE) 11:17:06 435.215
NO-84 19 Dec 11:06:50 11:10:23 81° 216° (SW) 11:14:15 435.350 FM
ISS 19 Dec 11:14:14 11:17:31 81° 340° (NNW) 11:20:50 437.550
EO-88 19 Dec 11:14:36 11:17:08 18° 296° (WNW) 11:19:40 145.990 - 145.960
POLYITAN 1 19 Dec 11:27:22 11:31:22 45° 261° (W) 11:35:25 437.675
LO-87 19 Dec 11:27:57 11:31:30 79° 283° (WNW) 11:35:03 145.935 - 145.965
VELOX 1 19 Dec 11:40:05 11:42:38 15° 89° (E) 11:45:10 145.980
SPROUT 19 Dec 11:41:00 11:44:30 24° 94° (E) 11:47:59 437.525
nSIGHT-1 19 Dec 11:50:24 11:53:33 50° 349° (N) 11:56:43 .
DUCHIFAT 1 19 Dec 11:50:34 11:54:21 34° 263° (W) 11:58:10 145.980
RS-15 19 Dec 11:53:52 12:02:05 21° 97° (E) 12:10:14 29.354- 29.394
QB50P2 19 Dec 11:54:26 11:57:46 23° 267° (W) 12:01:08 145.880/145.840
AO-7 19 Dec 11:55:58 12:01:33 20° 41° (NE) 12:07:08 .
ESTCUBE 1 19 Dec 12:04:15 12:08:43 55° 289° (WNW) 12:13:08 437.505/2401.250
BUGSAT 1 19 Dec 12:10:35 12:14:36 80° 256° (WSW) 12:18:37 437.445
Gurwin Techsat 1B 19 Dec 12:12:12 12:17:19 49° 68° (ENE) 12:22:26 435.225
AO-91 19 Dec 12:14:33 12:19:05 62° 74° (ENE) 12:23:09 145.960
NANOSAT C BR1 19 Dec 12:21:37 12:24:08 16° 270° (W) 12:26:41 145.865
Oscar 19 19 Dec 12:29:10 12:34:19 88° 75° (ENE) 12:39:32 437.125/150
M-CUBED/EXP-1 PRIME 19 Dec 12:37:50 12:39:53 13° 49° (NE) 12:41:58 437.505
NO-84 19 Dec 12:45:03 12:47:16 15° 230° (SW) 12:49:33 435.350 FM
ISS 19 Dec 12:51:04 12:54:15 43° 359° (N) 12:57:26 437.550
YUBILEINY 19 Dec 13:02:11 13:10:58 63° 75° (ENE) 13:19:37 435.215
VELOX 1 19 Dec 13:15:08 13:19:31 65° 288° (WNW) 13:23:51 145.980
SPROUT 19 Dec 13:16:34 13:20:29 37° 292° (WNW) 13:24:23 437.525
nSIGHT-1 19 Dec 13:26:56 13:30:05 48° 9° (N) 13:33:14 .
UKube-1 19 Dec 13:28:12 13:31:49 26° 95° (E) 13:35:25 .
AO-7 19 Dec 13:44:39 13:52:50 66° 64° (ENE) 14:01:05 .
SO-50 19 Dec 13:47:34 13:51:31 32° 118° (ESE) 13:55:33 436.795
ITAMSAT 1 19 Dec 13:52:58 13:57:41 36° 65° (ENE) 14:02:24 435.822/435.867
Gurwin Techsat 1B 19 Dec 13:53:03 13:57:29 27° 267° (W) 14:01:58 435.225
AO-91 19 Dec 13:53:05 13:55:48 16° 268° (W) 13:58:23 145.960
DX 1 19 Dec 13:54:29 13:58:50 75° 103° (ESE) 14:03:10 434.975-435.025
RS-15 19 Dec 14:00:11 14:12:25 73° 121° (ESE) 14:24:30 29.354- 29.394
50 SAT 19 Dec 14:03:22 14:06:31 67° 285° (WNW) 14:09:36 437.505
M-CUBED/EXP-1 PRIME 19 Dec 14:08:56 14:13:25 72° 67° (ENE) 14:18:04 437.505
Oscar 19 19 Dec 14:11:45 14:14:21 14° 273° (W) 14:16:59 437.125/150
MOZHAYETS 4 19 Dec 14:21:01 14:24:47 24° 93° (E) 14:28:32
ITUPSAT 1 19 Dec 14:22:27 14:25:31 17° 90° (E) 14:28:33 437.325
ISS 19 Dec 14:27:43 14:31:01 72° 20° (NNE) 14:34:18 437.550
DOVE 4 19 Dec 14:33:25 14:36:59 19° 61° (ENE) 14:40:28 437.250
nSIGHT-1 19 Dec 15:03:11 15:06:23 58° 208° (SSW) 15:09:32 .
